Вернуться в каталог

STARLINK-35283

АктивенСвязьVLEO
NORAD 66478·PAYLOAD·🇺🇸 United States

Запущен Nov 15, 2025 с Cape Canaveral Space Force Station

Loading…

Ближайшие Пролёты (ближайшие 24 часа)

TLE

СвежийSource: CelesTrak SupGP

Эпоха: Sep 15, 2026, 02:39 UTC

1 66478C 25262Y   26258.11090278  .00039193  00000+0  14194-2 0  2582
2 66478  43.0019 306.6665 0001400 261.8149  74.6725 15.27563083    10

Отслеживайте STARLINK-35283 в реальном времени с AllMySat

Download on the App Store